Theta_e
347 349 350 349 352 351 351 350 350 350 347 347 348 350 350 349 347 345 350 351 346 349 350 350 349 349 345 344 343 345 343 337 333 333 333 334 335 333
348 350 350 348 350 350 350 350 351 351 350 347 347 349 349 348 350 346 352 346 344 345 345 346 346 345 349 346 345 344 345 344 338 336 334 333 333 332
351 352 352 350 349 350 351 349 346 351 350 348 350 349 350 350 350 351 350 350 350 347 347 347 347 345 347 348 347 346 344 345 343 339 337 336 334 332
350 352 351 351 353 352 348 349 347 346 348 349 350 350 351 350 351 351 350 349 350 350 346 347 346 346 345 348 348 347 347 345 345 343 340 338 337 334
350 352 351 351 352 350 351 347 347 346 347 349 349 349 350 350 350 351 351 350 350 350 347 346 345 345 348 347 345 346 346 347 346 346 345 341 339 337
350 351 350 349 349 348 349 351 349 349 350 350 350 348 349 349 350 349 348 347 349 349 348 347 346 345 344 347 349 346 345 347 347 347 346 345 341 338
349 347 347 346 344 345 347 351 351 351 350 349 348 348 348 348 348 348 349 349 349 350 349 348 349 349 346 344 346 347 347 346 346 346 346 346 345 341
348 348 348 346 345 346 346 345 348 351 352 351 349 349 350 350 350 350 350 349 349 348 349 348 350 348 348 348 345 345 346 346 346 346 346 346 346 343
342 346 348 349 350 350 349 348 348 346 347 348 349 349 349 350 350 348 347 347 347 347 347 347 346 347 346 346 345 343 344 344 342 343 345 345 345 345
339 342 346 348 350 350 350 352 351 350 347 346 346 345 345 342 341 340 340 340 341 341 341 342 343 345 346 346 344 343 343 343 342 342 341 345 344 344
344 345 348 350 352 349 348 351 348 345 344 344 343 341 339 335 333 333 336 337 339 340 340 341 341 343 344 343 340 339 339 341 341 341 340 341 342 343
350 349 349 348 348 347 347 350 348 343 339 336 334 330 327 327 327 329 329 331 332 335 335 332 338 338 340 336 333 331 331 331 332 333 333 330 329 325
349 348 346 346 344 343 343 345 345 338 333 330 331 329 328 329 329 327 327 328 328 330 329 326 331 334 335 331 323 321 319 319 320 320 321 321 321 322
347 346 344 343 342 341 340 339 335 329 329 331 331 329 330 330 327 326 326 325 325 323 324 325 326 326 326 322 315 314 313 314 314 315 315 315 317 318
344 345 343 341 339 334 331 326 325 329 331 331 328 329 328 329 327 328 327 328 326 324 324 323 324 323 322 319 316 312 313 312 312 313 314 314 314 314
342 341 339 335 328 327 324 325 329 330 331 332 331 330 329 330 330 329 330 329 329 328 326 323 324 324 322 320 318 316 313 314 311 311 310 310 310 310
336 333 328 326 324 326 327 327 328 329 330 329 330 330 330 331 330 329 329 330 329 328 327 328 327 325 324 324 323 319 316 314 312 312 311 311 311 310
332 328 328 328 328 329 330 330 330 328 329 329 329 329 329 330 331 329 327 329 329 329 330 329 328 327 327 324 324 323 321 319 317 315 317 318 318 315
334 332 332 332 331 331 332 332 333 331 330 328 328 329 329 329 327 330 330 330 330 329 329 328 328 325 326 326 325 321 325 323 321 320 319 319 320 321
334 333 331 331 331 332 333 334 335 331 330 330 329 329 330 329 329 329 329 330 330 328 326 328 328 326 325 325 324 324 320 325 322 322 321 318 317 319
333 334 333 334 335 336 336 335 335 332 331 330 330 328 328 327 328 329 329 326 327 327 326 325 324 322 324 324 325 323 323 320 322 324 324 321 322 321
333 334 336 336 336 335 335 335 334 332 331 331 329 327 326 326 327 329 329 327 327 326 326 325 324 324 323 322 321 321 321 322 320 319 321 322 322 322
336 336 335 335 335 335 335 335 334 333 331 330 328 328 327 326 326 326 328 327 325 325 325 325 324 323 323 322 322 322 323 323 322 322 323 321 318 318
Wind_Speed
12 11 12 11 9 8 8 8 8 6 6 4 5 5 8 8 9 10 8 9 11 16 18 19 21 23 23 23 23 22 21 21 20 20 19 19 19 17
11 11 11 12 12 12 11 10 10 10 8 8 11 11 12 11 12 13 11 11 10 11 14 17 21 23 26 27 27 27 26 25 25 23 22 22 22 21
12 12 12 11 11 12 12 14 14 10 11 14 11 12 13 12 11 10 11 11 13 17 17 18 21 22 24 26 27 30 30 30 29 28 26 26 25 24
15 13 14 11 13 13 14 15 16 16 13 15 15 15 13 13 12 13 14 17 19 21 23 23 21 21 22 24 27 28 31 32 33 32 31 30 28 27
16 15 15 13 14 14 15 16 17 16 14 14 16 15 15 15 16 17 17 17 19 21 23 24 23 22 23 25 28 28 29 32 35 37 36 35 33 31
16 16 17 16 17 17 16 15 15 14 13 15 17 17 17 17 16 18 19 18 19 18 20 21 23 25 26 27 28 30 32 32 35 37 39 38 37 35
15 18 19 21 23 20 17 16 16 15 16 17 20 20 19 17 17 18 18 20 20 19 21 22 21 20 23 27 30 33 35 36 35 36 39 41 40 38
16 18 20 24 26 24 24 25 23 19 18 19 19 18 19 17 18 17 18 19 16 13 12 15 14 17 18 19 24 27 29 31 33 35 37 40 42 40
18 19 21 22 22 20 19 22 23 21 24 27 18 18 17 17 11 14 17 17 20 20 19 23 20 23 21 22 26 29 31 27 26 28 33 35 39 41
22 23 27 25 23 20 16 14 14 12 14 13 16 15 16 18 18 17 20 22 24 22 19 13 18 21 20 19 22 23 24 26 29 30 29 32 32 38
25 26 20 16 17 20 16 14 10 12 10 10 12 15 18 18 17 15 12 12 17 15 11 17 20 21 18 15 17 20 20 24 26 26 30 34 38 39
17 19 19 17 16 11 11 11 11 9 6 5 5 6 8 7 7 6 8 10 10 9 4 14 10 7 4 6 8 12 14 15 19 23 25 22 21 17
18 16 13 10 9 9 8 8 8 8 6 4 3 2 5 6 5 4 5 5 6 6 13 11 7 10 6 6 8 13 14 14 14 13 12 10 6 9
14 14 11 11 10 8 8 8 8 7 7 7 6 7 6 6 6 8 11 9 8 6 10 7 4 7 5 4 5 10 11 10 7 8 11 11 9 12
12 14 13 12 10 8 8 9 9 8 9 8 7 5 5 5 5 5 5 5 8 12 12 13 9 8 8 6 3 5 5 8 6 6 6 6 7 10
15 16 15 13 11 11 12 10 8 8 8 7 7 6 5 4 2 3 3 2 3 6 10 14 12 11 12 10 8 6 5 2 4 4 3 3 4 8
20 19 15 12 12 11 10 8 8 8 7 7 6 6 4 3 2 1 1 1 2 3 4 6 6 8 9 7 7 7 6 5 4 4 4 4 3 4
21 18 14 13 14 14 12 10 8 9 9 9 7 5 4 3 3 1 1 3 3 3 4 4 5 1 1 3 6 5 3 3 4 5 5 4 5 7
16 17 16 16 16 15 13 12 10 10 9 10 9 7 6 5 5 5 6 6 4 4 4 3 2 2 2 3 2 1 0 3 4 5 5 6 6 6
15 16 16 16 16 15 14 13 11 11 10 9 10 10 10 9 9 8 8 7 6 6 6 5 4 2 1 1 2 1 3 5 6 5 5 8 11 14
15 15 16 15 14 13 12 12 12 13 12 12 10 9 10 9 10 10 9 8 8 8 7 6 4 6 4 3 6 5 4 4 10 8 5 7 7 8
16 16 16 15 15 15 14 14 14 14 13 13 11 9 9 11 12 10 10 9 10 10 8 6 6 6 6 7 8 7 8 6 8 10 14 15 11 8
16 17 17 16 16 16 16 16 15 13 13 13 11 10 10 11 11 11 10 10 11 10 9 9 8 8 10 9 9 10 9 10 10 11 14 16 19 22
Wind_Direction
257 258 258 262 254 248 247 253 268 287 294 303 307 333 335 321 303 294 272 262 271 261 264 260 257 255 253 250 248 246 248 248 246 243 242 241 239 238
251 249 253 258 258 260 254 251 244 252 277 279 289 296 307 304 294 292 273 272 263 272 276 271 270 265 255 254 251 251 250 250 249 246 244 244 243 243
246 245 255 249 253 258 256 257 257 246 257 279 279 288 294 300 296 286 269 268 272 275 280 281 278 268 259 254 253 249 251 251 250 249 246 245 244 243
252 245 249 249 249 256 262 254 255 257 259 275 281 284 284 281 281 286 280 274 270 274 280 283 278 271 261 257 257 254 249 250 250 250 248 246 245 243
261 256 256 256 256 255 254 263 260 264 260 264 275 278 282 281 281 282 279 276 272 273 275 275 273 273 265 258 253 253 252 252 251 247 247 245 244 243
259 256 257 257 262 259 256 254 263 260 265 264 270 273 274 278 275 279 281 278 281 279 276 275 273 276 273 266 259 255 256 257 255 250 246 245 244 244
265 265 261 257 264 266 251 255 255 261 263 268 270 274 271 274 274 284 283 285 283 280 277 278 276 275 273 271 265 263 260 259 259 255 248 246 243 242
267 267 267 266 267 268 261 257 254 254 262 259 267 270 277 281 282 279 283 283 286 280 281 283 283 276 276 272 280 284 277 271 269 263 256 247 247 242
259 263 266 260 263 259 262 262 256 256 264 263 258 264 278 283 282 279 278 275 277 279 288 284 285 283 284 280 281 278 279 278 275 275 262 257 248 249
236 247 260 263 260 257 258 256 255 259 258 249 250 265 263 273 280 280 281 283 283 282 281 272 277 278 282 281 288 293 288 277 277 270 266 260 256 258
246 252 258 252 256 259 250 248 229 247 239 248 260 272 279 284 287 293 292 288 291 294 295 270 286 282 281 287 282 295 289 279 273 266 265 267 269 261
233 236 249 249 259 253 222 202 200 206 210 224 263 288 295 304 303 300 297 294 294 296 270 350 333 341 306 285 308 333 323 305 294 285 287 294 284 260
223 229 240 229 208 192 190 202 215 209 204 165 137 62 38 33 21 2 341 321 316 293 306 316 294 300 267 300 337 357 356 356 0 359 1 356 321 233
215 216 204 196 201 207 220 229 213 169 153 143 123 93 83 65 55 63 63 60 54 26 2 3 297 334 315 339 1 6 33 38 50 81 104 116 126 153
204 211 202 200 203 202 196 179 155 151 151 144 132 130 108 101 107 74 65 65 50 40 39 42 47 40 43 47 49 27 12 34 61 102 119 134 152 165
198 188 185 179 176 175 159 151 152 149 150 152 149 140 131 134 131 89 69 99 49 44 46 50 49 57 57 60 69 68 39 59 65 70 92 97 141 172
175 168 163 163 158 162 161 159 152 151 155 162 165 150 154 178 180 117 57 31 34 10 28 23 19 54 66 58 57 61 92 93 101 112 108 114 145 184
171 167 168 173 178 176 173 173 179 183 189 188 184 168 179 207 208 212 233 255 293 308 319 342 358 12 149 55 77 82 89 124 158 166 171 185 188 205
176 180 183 186 188 188 191 197 201 199 196 200 200 199 210 223 224 227 232 241 251 267 275 295 320 360 358 44 84 121 162 195 188 212 237 244 254 244
195 184 181 182 187 197 209 218 212 195 198 209 213 214 220 228 231 231 235 241 248 257 256 239 231 221 278 18 309 215 227 209 217 237 242 247 251 238
197 193 194 197 203 212 218 215 209 206 207 211 216 224 226 229 236 237 243 242 248 251 252 243 234 223 237 270 246 226 233 231 221 227 238 244 259 251
208 212 211 209 209 205 202 202 203 207 209 215 222 223 227 228 237 240 244 243 235 243 245 250 248 247 246 254 277 277 271 257 270 250 242 234 253 263
213 218 221 219 215 205 203 208 211 216 221 221 216 217 224 233 236 240 246 243 245 246 247 250 243 247 260 262 269 277 273 268 268 259 263 266 257 255